Time,TemperatureF,DewpointF,PressureIn,WindDirection,WindDirectionDegrees,WindSpeedMPH,WindSpeedGustMPH,Humidity,HourlyPrecipIn,Conditions,Clouds,dailyrainin,SolarRadiationWatts/m^2,SoftwareType,DateUTC
2013-07-28 00:02:00,57.2,29.1,25.33,South,180,0.0,0.0,34,0.00,RA,,0.00,0.0,WeatherDisplay:10.37,2013-07-28 06:02:00,
2013-07-28 00:07:00,57.2,29.1,25.33,South,180,0.0,0.0,34,0.00,RA,,0.00,0.0,WeatherDisplay:10.37,2013-07-28 06:07:00,
2013-07-28 00:12:00,56.7,28.6,25.33,South,180,1.2,1.2,34,0.00,CLR,,0.00,0.0,WeatherDisplay:10.37,2013-07-28 06:12:00,
2013-07-28 00:17:00,56.8,28.7,25.33,South,180,1.2,0.0,34,0.00,CLR,,0.00,0.0,WeatherDisplay:10.37,2013-07-28 06:17:00,
2013-07-28 00:22:00,56.8,29.4,25.33,South,180,1.2,0.0,35,0.00,CLR,,0.00,0.0,WeatherDisplay:10.37,2013-07-28 06:22:00,
2013-07-28 00:27:00,56.7,30.0,25.32,South,180,1.2,1.2,36,0.00,CLR,,0.00,0.0,WeatherDisplay:10.37,2013-07-28 06:27:00,
2013-07-28 00:32:00,56.5,30.5,25.33,South,180,2.3,2.3,37,0.00,CLR,,0.00,0.0,WeatherDisplay:10.37,2013-07-28 06:32:00,
2013-07-28 00:37:00,56.5,30.5,25.33,NE,45,0.0,0.0,37,0.00,CLR,,0.00,0.0,WeatherDisplay:10.37,2013-07-28 06:37:00,
2013-07-28 00:42:00,56.5,31.2,25.33,South,180,2.3,2.3,38,0.00,CLR,,0.00,0.0,WeatherDisplay:10.37,2013-07-28 06:42:00,
2013-07-28 00:47:00,56.3,32.3,25.33,SE,135,1.2,0.0,40,0.00,CLR,,0.00,0.0,WeatherDisplay:10.37,2013-07-28 06:47:00,
2013-07-28 00:52:00,55.9,31.9,25.33,South,180,1.2,0.0,40,0.00,CLR,,0.00,0.0,WeatherDisplay:10.37,2013-07-28 06:52:00,
2013-07-28 00:57:00,55.8,32.4,25.33,South,180,0.0,0.0,41,0.00,CLR,,0.00,0.0,WeatherDisplay:10.37,2013-07-28 06:57:00,
2013-07-28 01:02:00,55.8,33.0,25.33,South,180,0.0,0.0,42,0.00,CLR,,0.00,0.0,WeatherDisplay:10.37,2013-07-28 07:02:00,
2013-07-28 01:07:00,55.8,33.0,25.32,South,180,0.0,0.0,42,0.00,CLR,,0.00,0.0,WeatherDisplay:10.37,2013-07-28 07:07:00,
2013-07-28 01:12:00,55.8,34.7,25.32,SW,225,0.0,0.0,45,0.00,CLR,,0.00,0.0,WeatherDisplay:10.37,2013-07-28 07:12:00,
2013-07-28 01:17:00,55.8,35.3,25.32,South,180,1.2,0.0,46,0.00,CLR,,0.00,0.0,WeatherDisplay:10.37,2013-07-28 07:17:00,
2013-07-28 01:22:00,55.9,36.0,25.32,South,180,1.2,0.0,47,0.00,CLR,,0.00,0.0,WeatherDisplay:10.37,2013-07-28 07:22:00,
2013-07-28 01:27:00,56.3,36.3,25.32,SE,135,0.0,0.0,47,0.00,CLR,,0.00,0.0,WeatherDisplay:10.37,2013-07-28 07:27:00,
2013-07-28 01:32:00,56.5,37.0,25.32,SW,225,1.2,1.2,48,0.00,CLR,,0.00,0.0,WeatherDisplay:10.37,2013-07-28 07:32:00,
2013-07-28 01:38:00,56.7,37.7,25.32,SE,135,1.2,1.2,49,0.00,CLR,,0.00,0.0,WeatherDisplay:10.37,2013-07-28 07:38:00,
2013-07-28 01:43:00,56.7,37.7,25.32,South,180,1.2,0.0,49,0.00,CLR,,0.00,0.0,WeatherDisplay:10.37,2013-07-28 07:43:00,
2013-07-28 01:48:00,56.7,37.7,25.31,South,180,1.2,0.0,49,0.00,CLR,,0.00,0.0,WeatherDisplay:10.37,2013-07-28 07:48:00,
2013-07-28 01:53:00,56.8,38.4,25.32,SW,225,2.3,0.0,50,0.00,CLR,,0.00,0.0,WeatherDisplay:10.37,2013-07-28 07:53:00,
2013-07-28 01:58:00,56.8,38.4,25.32,SW,225,0.0,0.0,50,0.00,CLR,,0.00,0.0,WeatherDisplay:10.37,2013-07-28 07:58:00,
2013-07-28 02:03:00,56.8,38.4,25.31,SW,225,0.0,0.0,50,0.00,CLR,,0.00,0.0,WeatherDisplay:10.37,2013-07-28 08:03:00,
2013-07-28 02:08:00,56.5,39.1,25.32,NW,315,0.0,0.0,52,0.00,CLR,,0.00,0.0,WeatherDisplay:10.37,2013-07-28 08:08:00,
2013-07-28 02:13:00,56.5,39.1,25.32,NW,315,0.0,0.0,52,0.00,CLR,,0.00,0.0,WeatherDisplay:10.37,2013-07-28 08:13:00,
2013-07-28 02:18:00,56.3,38.9,25.31,SW,225,0.0,0.0,52,0.00,CLR,,0.00,0.0,WeatherDisplay:10.37,2013-07-28 08:18:00,
2013-07-28 02:23:00,56.1,39.2,25.31,SW,225,0.0,0.0,53,0.00,CLR,,0.00,0.0,WeatherDisplay:10.37,2013-07-28 08:23:00,
2013-07-28 02:28:00,56.1,39.2,25.30,SW,225,0.0,0.0,53,0.00,CLR,,0.00,0.0,WeatherDisplay:10.37,2013-07-28 08:28:00,
2013-07-28 02:33:00,56.1,39.2,25.31,SW,225,0.0,0.0,53,0.00,CLR,,0.00,0.0,WeatherDisplay:10.37,2013-07-28 08:33:00,
2013-07-28 02:38:00,56.3,39.9,25.31,SW,225,0.0,0.0,54,0.00,CLR,,0.00,0.0,WeatherDisplay:10.37,2013-07-28 08:38:00,
2013-07-28 02:43:00,56.3,40.3,25.31,South,180,1.2,1.6,55,0.00,CLR,,0.00,0.0,WeatherDisplay:10.37,2013-07-28 08:43:00,
2013-07-28 02:48:00,56.1,40.2,25.30,South,180,1.2,0.0,55,0.00,CLR,,0.00,0.0,WeatherDisplay:10.37,2013-07-28 08:48:00,
2013-07-28 02:53:00,56.1,41.5,25.31,North,0,2.3,2.3,58,0.00,CLR,,0.00,0.0,WeatherDisplay:10.37,2013-07-28 08:53:00,
2013-07-28 02:58:00,56.1,41.1,25.30,South,180,0.0,0.0,57,0.00,CLR,,0.00,0.0,WeatherDisplay:10.37,2013-07-28 08:58:00,
2013-07-28 03:03:00,55.9,40.9,25.30,SW,225,0.0,0.0,57,0.00,CLR,,0.00,0.0,WeatherDisplay:10.37,2013-07-28 09:03:00,
2013-07-28 03:08:00,55.9,41.4,25.30,SW,225,0.0,0.0,58,0.00,CLR,,0.00,0.0,WeatherDisplay:10.37,2013-07-28 09:08:00,
2013-07-28 03:13:00,55.8,40.7,25.30,SW,225,0.0,0.0,57,0.00,CLR,,0.00,0.0,WeatherDisplay:10.37,2013-07-28 09:13:00,
2013-07-28 03:18:00,55.6,41.0,25.31,SW,225,0.0,0.0,58,0.00,CLR,,0.00,0.0,WeatherDisplay:10.37,2013-07-28 09:18:00,
2013-07-28 03:23:00,55.2,40.7,25.30,SW,225,0.0,0.0,58,0.00,CLR,,0.00,0.0,WeatherDisplay:10.37,2013-07-28 09:23:00,
2013-07-28 03:28:00,55.0,41.0,25.31,South,180,0.0,0.0,59,0.00,CLR,,0.00,0.0,WeatherDisplay:10.37,2013-07-28 09:28:00,
2013-07-28 03:33:00,54.7,41.1,25.31,West,270,0.0,0.0,60,0.00,CLR,,0.00,0.0,WeatherDisplay:10.37,2013-07-28 09:33:00,
2013-07-28 03:38:00,54.5,40.9,25.31,West,270,0.0,0.0,60,0.00,CLR,,0.00,0.0,WeatherDisplay:10.37,2013-07-28 09:38:00,
2013-07-28 03:43:00,54.3,41.1,25.31,South,180,0.0,0.0,61,0.00,CLR,,0.00,0.0,WeatherDisplay:10.37,2013-07-28 09:43:00,
2013-07-28 03:48:00,54.3,41.1,25.30,South,180,3.5,0.0,61,0.00,CLR,,0.00,0.0,WeatherDisplay:10.37,2013-07-28 09:48:00,
2013-07-28 03:53:00,54.1,41.4,25.30,South,180,1.2,1.2,62,0.00,CLR,,0.00,0.0,WeatherDisplay:10.37,2013-07-28 09:53:00,
2013-07-28 03:58:00,54.0,41.6,25.30,SE,135,2.3,0.0,63,0.00,CLR,,0.00,0.0,WeatherDisplay:10.37,2013-07-28 09:58:00,
2013-07-28 04:03:00,54.0,41.6,25.31,West,270,0.0,0.0,63,0.00,CLR,,0.00,0.0,WeatherDisplay:10.37,2013-07-28 10:03:00,
2013-07-28 04:08:00,53.6,41.7,25.30,South,180,0.0,0.7,64,0.00,CLR,,0.00,0.0,WeatherDisplay:10.37,2013-07-28 10:08:00,
2013-07-28 04:13:00,53.4,41.5,25.30,SW,225,1.2,0.0,64,0.00,CLR,,0.00,0.0,WeatherDisplay:10.37,2013-07-28 10:13:00,
2013-07-28 04:18:00,53.2,41.4,25.31,SW,225,1.2,0.0,64,0.00,CLR,,0.00,0.0,WeatherDisplay:10.37,2013-07-28 10:18:00,
2013-07-28 04:23:00,52.9,41.4,25.31,South,180,1.2,1.2,65,0.00,CLR,,0.00,0.0,WeatherDisplay:10.37,2013-07-28 10:23:00,
2013-07-28 04:28:00,52.7,41.7,25.31,South,180,1.2,0.0,66,0.00,CLR,,0.00,0.0,WeatherDisplay:10.37,2013-07-28 10:28:00,
2013-07-28 04:33:00,52.3,41.7,25.31,South,180,0.0,0.0,67,0.00,CLR,,0.00,0.0,WeatherDisplay:10.37,2013-07-28 10:33:00,
2013-07-28 04:38:00,52.2,41.9,25.31,South,180,2.3,2.3,68,0.00,CLR,,0.00,0.0,WeatherDisplay:10.37,2013-07-28 10:38:00,
2013-07-28 04:43:00,52.0,41.7,25.31,West,270,1.2,0.0,68,0.00,CLR,,0.00,0.0,WeatherDisplay:10.37,2013-07-28 10:43:00,
2013-07-28 04:48:00,51.8,41.6,25.31,South,180,1.2,0.0,68,0.00,CLR,,0.00,0.0,WeatherDisplay:10.37,2013-07-28 10:48:00,
2013-07-28 04:53:00,51.6,41.8,25.31,South,180,1.2,0.0,69,0.00,CLR,,0.00,0.0,WeatherDisplay:10.37,2013-07-28 10:53:00,
2013-07-28 04:58:00,51.4,41.6,25.31,North,0,1.2,0.0,69,0.00,CLR,,0.00,0.0,WeatherDisplay:10.37,2013-07-28 10:58:00,
2013-07-28 05:03:00,51.4,41.6,25.31,South,180,1.2,1.2,69,0.00,CLR,,0.00,0.0,WeatherDisplay:10.37,2013-07-28 11:03:00,
2013-07-28 05:08:00,51.3,41.8,25.32,South,180,1.2,0.0,70,0.00,CLR,,0.00,0.0,WeatherDisplay:10.37,2013-07-28 11:08:00,
2013-07-28 05:13:00,51.3,42.2,25.32,South,180,1.2,0.0,71,0.00,CLR,,0.00,0.0,WeatherDisplay:10.37,2013-07-28 11:13:00,
2013-07-28 05:18:00,51.1,42.0,25.31,South,180,1.2,1.2,71,0.00,CLR,,0.00,0.0,WeatherDisplay:10.37,2013-07-28 11:18:00,
2013-07-28 05:23:00,51.3,42.5,25.32,South,180,1.2,1.2,72,0.00,CLR,,0.00,0.0,WeatherDisplay:10.37,2013-07-28 11:23:00,
2013-07-28 05:28:00,51.3,42.5,25.32,South,180,1.2,0.0,72,0.00,CLR,,0.00,0.0,WeatherDisplay:10.37,2013-07-28 11:28:00,
2013-07-28 05:33:00,51.4,42.7,25.32,South,180,0.0,0.0,72,0.00,CLR,,0.00,0.0,WeatherDisplay:10.37,2013-07-28 11:33:00,
2013-07-28 05:38:00,51.4,42.7,25.32,South,180,1.2,1.2,72,0.00,CLR,,0.00,0.0,WeatherDisplay:10.37,2013-07-28 11:38:00,
2013-07-28 05:43:00,51.4,42.7,25.32,South,180,1.2,0.0,72,0.00,CLR,,0.00,0.0,WeatherDisplay:10.37,2013-07-28 11:43:00,
2013-07-28 05:48:00,51.4,43.1,25.32,South,180,0.0,0.0,73,0.00,CLR,,0.00,0.0,WeatherDisplay:10.37,2013-07-28 11:48:00,
2013-07-28 05:53:00,51.3,42.9,25.32,South,180,0.0,0.0,73,0.00,CLR,,0.00,0.0,WeatherDisplay:10.37,2013-07-28 11:53:00,
2013-07-28 05:58:00,51.1,42.7,25.32,West,270,0.0,0.0,73,0.00,CLR,,0.00,0.0,WeatherDisplay:10.37,2013-07-28 11:58:00,
2013-07-28 06:03:00,51.1,42.7,25.31,West,270,0.0,0.0,73,0.00,BKN,,0.00,0.0,WeatherDisplay:10.37,2013-07-28 12:03:00,
2013-07-28 06:08:00,50.7,42.7,25.32,SW,225,0.0,0.0,74,0.00,BKN,,0.00,12.3,WeatherDisplay:10.37,2013-07-28 12:08:00,
2013-07-28 06:13:00,50.5,42.6,25.31,NW,315,0.0,0.0,74,0.00,BKN,,0.00,14.5,WeatherDisplay:10.37,2013-07-28 12:13:00,
2013-07-28 06:18:00,50.4,42.7,25.32,South,180,0.0,0.0,75,0.00,BKN,,0.00,16.8,WeatherDisplay:10.37,2013-07-28 12:18:00,
2013-07-28 06:23:00,50.2,42.6,25.32,South,180,0.0,0.0,75,0.00,BKN,,0.00,19.2,WeatherDisplay:10.37,2013-07-28 12:23:00,
2013-07-28 06:28:00,50.2,42.9,25.32,South,180,0.0,0.0,76,0.00,BKN,,0.00,21.7,WeatherDisplay:10.37,2013-07-28 12:28:00,
2013-07-28 06:33:00,50.2,42.9,25.32,South,180,0.0,0.0,76,0.00,BKN,,0.00,24.1,WeatherDisplay:10.37,2013-07-28 12:33:00,
2013-07-28 06:38:00,50.2,43.2,25.32,SW,225,0.0,0.0,77,0.00,BKN,,0.00,0.0,WeatherDisplay:10.37,2013-07-28 12:38:00,
2013-07-28 06:44:00,50.2,43.2,25.32,SW,225,0.0,0.0,77,0.00,BKN,,0.00,29.3,WeatherDisplay:10.37,2013-07-28 12:44:00,
2013-07-28 06:49:00,50.2,43.2,25.32,South,180,0.0,0.0,77,0.00,BKN,,0.00,0.0,WeatherDisplay:10.37,2013-07-28 12:49:00,
2013-07-28 06:54:00,50.2,43.2,25.32,West,270,0.0,0.0,77,0.00,BKN,,0.00,0.0,WeatherDisplay:10.37,2013-07-28 12:54:00,
2013-07-28 06:59:00,50.4,43.8,25.33,SW,225,0.0,0.0,78,0.00,BKN,,0.00,37.4,WeatherDisplay:10.37,2013-07-28 12:59:00,
2013-07-28 07:04:00,50.4,43.8,25.33,SW,225,0.0,0.0,78,0.00,BKN,,0.00,0.0,WeatherDisplay:10.37,2013-07-28 13:04:00,
2013-07-28 07:09:00,50.7,43.8,25.33,SW,225,0.0,0.0,77,0.00,BKN,,0.00,0.0,WeatherDisplay:10.37,2013-07-28 13:09:00,
2013-07-28 07:14:00,50.9,43.9,25.33,North,0,0.0,0.0,77,0.00,BKN,,0.00,46.2,WeatherDisplay:10.37,2013-07-28 13:14:00,
2013-07-28 07:19:00,51.3,44.3,25.33,West,270,0.0,0.0,77,0.00,BKN,,0.00,0.0,WeatherDisplay:10.37,2013-07-28 13:19:00,
2013-07-28 07:24:00,51.6,44.6,25.33,West,270,0.0,0.0,77,0.00,BKN,,0.00,0.0,WeatherDisplay:10.37,2013-07-28 13:24:00,
2013-07-28 07:29:00,52.2,45.5,25.33,West,270,0.0,0.0,78,0.00,BKN,,0.00,55.4,WeatherDisplay:10.37,2013-07-28 13:29:00,
2013-07-28 07:34:00,52.9,45.9,25.33,West,270,0.0,0.0,77,0.00,BKN,,0.00,0.0,WeatherDisplay:10.37,2013-07-28 13:34:00,
2013-07-28 07:39:00,53.4,46.0,25.33,West,270,0.0,0.0,76,0.00,BKN,,0.00,0.0,WeatherDisplay:10.37,2013-07-28 13:39:00,
2013-07-28 07:44:00,53.8,46.4,25.33,West,270,0.0,0.0,76,0.00,BKN,,0.00,65.0,WeatherDisplay:10.37,2013-07-28 13:44:00,
2013-07-28 07:49:00,54.7,46.9,25.33,WNW,292,0.0,0.0,75,0.00,BKN,,0.00,0.0,WeatherDisplay:10.37,2013-07-28 13:49:00,
2013-07-28 07:54:00,55.2,46.7,25.33,North,0,1.2,0.0,73,0.00,BKN,,0.00,0.0,WeatherDisplay:10.37,2013-07-28 13:54:00,
2013-07-28 07:59:00,55.6,47.1,25.33,North,0,0.0,0.0,73,0.00,BKN,,0.00,0.0,WeatherDisplay:10.37,2013-07-28 13:59:00,
2013-07-28 08:04:00,55.6,47.1,25.34,North,0,0.0,0.0,73,0.00,BKN,,0.00,78.5,WeatherDisplay:10.37,2013-07-28 14:04:00,
2013-07-28 08:09:00,56.7,48.1,25.33,North,0,0.0,0.0,73,0.00,BKN,,0.00,0.0,WeatherDisplay:10.37,2013-07-28 14:09:00,
2013-07-28 08:14:00,57.2,48.3,25.34,North,0,0.0,0.0,72,0.00,BKN,,0.00,0.0,WeatherDisplay:10.37,2013-07-28 14:14:00,
2013-07-28 08:19:00,57.2,48.3,25.33,North,0,0.0,0.0,72,0.00,BKN,,0.00,89.0,WeatherDisplay:10.37,2013-07-28 14:19:00,
2013-07-28 08:24:00,58.3,48.5,25.33,NW,315,0.0,0.0,70,0.00,BKN,,0.00,0.0,WeatherDisplay:10.37,2013-07-28 14:24:00,
2013-07-28 08:29:00,59.0,48.8,25.33,West,270,1.2,0.0,69,0.00,BKN,,0.00,0.0,WeatherDisplay:10.37,2013-07-28 14:29:00,
2013-07-28 08:34:00,59.4,48.8,25.33,North,0,2.3,2.3,68,0.00,BKN,,0.00,0.0,WeatherDisplay:10.37,2013-07-28 14:34:00,
2013-07-28 08:39:00,59.4,48.8,25.33,North,0,2.3,2.3,68,0.00,BKN,,0.00,103.1,WeatherDisplay:10.37,2013-07-28 14:39:00,
2013-07-28 08:44:00,59.4,48.4,25.33,West,270,2.3,0.0,67,0.00,BKN,,0.00,0.0,WeatherDisplay:10.37,2013-07-28 14:44:00,
2013-07-28 08:49:00,59.7,48.3,25.33,NW,315,1.2,1.2,66,0.00,BKN,,0.00,0.0,WeatherDisplay:10.37,2013-07-28 14:49:00,
2013-07-28 08:54:00,60.1,48.7,25.33,NW,315,0.0,0.0,66,0.00,BKN,,0.00,113.9,WeatherDisplay:10.37,2013-07-28 14:54:00,
2013-07-28 08:59:00,60.8,49.4,25.34,North,0,2.3,2.3,66,0.00,BKN,,0.00,0.0,WeatherDisplay:10.37,2013-07-28 14:59:00,
2013-07-28 09:04:00,60.8,49.4,25.33,North,0,1.2,1.2,66,0.00,BKN,,0.00,0.0,WeatherDisplay:10.37,2013-07-28 15:04:00,
2013-07-28 09:09:00,62.1,49.7,25.33,NE,45,2.3,2.3,64,0.00,BKN,,0.00,0.0,WeatherDisplay:10.37,2013-07-28 15:09:00,
2013-07-28 09:14:00,62.4,50.1,25.33,North,0,1.2,1.2,64,0.00,BKN,,0.00,128.5,WeatherDisplay:10.37,2013-07-28 15:14:00,
2013-07-28 09:19:00,62.8,50.0,25.33,NW,315,2.3,2.3,63,0.00,BKN,,0.00,0.0,WeatherDisplay:10.37,2013-07-28 15:19:00,
2013-07-28 09:24:00,62.8,49.6,25.33,NW,315,2.3,2.3,62,0.00,BKN,,0.00,0.0,WeatherDisplay:10.37,2013-07-28 15:24:00,
2013-07-28 09:29:00,63.0,49.7,25.33,West,270,2.3,2.3,62,0.00,BKN,,0.00,139.1,WeatherDisplay:10.37,2013-07-28 15:29:00,
2013-07-28 09:34:00,63.0,49.7,25.33,SE,135,3.5,3.5,62,0.00,BKN,,0.00,0.0,WeatherDisplay:10.37,2013-07-28 15:34:00,
2013-07-28 09:39:00,63.3,50.1,25.33,North,0,3.5,3.5,62,0.00,BKN,,0.00,0.0,WeatherDisplay:10.37,2013-07-28 15:39:00,
2013-07-28 09:44:00,63.3,49.6,25.32,South,180,1.2,0.0,61,0.00,BKN,,0.00,0.0,WeatherDisplay:10.37,2013-07-28 15:44:00,
2013-07-28 09:49:00,63.7,49.5,25.33,North,0,4.6,0.0,60,0.00,BKN,,0.00,0.0,WeatherDisplay:10.37,2013-07-28 15:49:00,
2013-07-28 09:54:00,63.7,49.5,25.33,North,0,0.0,0.0,60,0.00,BKN,,0.00,0.0,WeatherDisplay:10.37,2013-07-28 15:54:00,
2013-07-28 09:59:00,64.0,50.3,25.32,NE,45,2.3,2.3,61,0.00,BKN,,0.00,0.0,WeatherDisplay:10.37,2013-07-28 15:59:00,
2013-07-28 10:04:00,64.0,49.9,25.32,NE,45,3.5,3.5,60,0.00,BKN,,0.00,163.2,WeatherDisplay:10.37,2013-07-28 16:04:00,
2013-07-28 10:09:00,64.8,50.1,25.32,NE,45,3.5,3.5,59,0.00,BKN,,0.00,0.0,WeatherDisplay:10.37,2013-07-28 16:09:00,
2013-07-28 10:14:00,65.1,50.0,25.32,NW,315,3.5,3.5,58,0.00,BKN,,0.00,0.0,WeatherDisplay:10.37,2013-07-28 16:14:00,
2013-07-28 10:19:00,65.7,50.0,25.32,ESE,112,4.6,4.6,57,0.00,BKN,,0.00,0.0,WeatherDisplay:10.37,2013-07-28 16:19:00,
2013-07-28 10:24:00,66.4,50.2,25.32,West,270,3.5,3.5,56,0.00,BKN,,0.00,176.3,WeatherDisplay:10.37,2013-07-28 16:24:00,
2013-07-28 10:29:00,66.6,49.9,25.31,SSE,158,1.2,0.0,55,0.00,BKN,,0.00,0.0,WeatherDisplay:10.37,2013-07-28 16:29:00,
2013-07-28 10:34:00,66.7,50.1,25.31,West,270,3.5,3.5,55,0.00,BKN,,0.00,0.0,WeatherDisplay:10.37,2013-07-28 16:34:00,
2013-07-28 10:39:00,67.3,50.1,25.31,North,0,3.5,3.5,54,0.00,BKN,,0.00,185.3,WeatherDisplay:10.37,2013-07-28 16:39:00,
2013-07-28 10:44:00,68.0,49.7,25.30,West,270,5.8,5.8,52,0.00,BKN,,0.00,0.0,WeatherDisplay:10.37,2013-07-28 16:44:00,
2013-07-28 10:49:00,68.5,50.2,25.30,North,0,3.5,3.5,52,0.00,BKN,,0.00,0.0,WeatherDisplay:10.37,2013-07-28 16:49:00,
2013-07-28 10:54:00,69.1,50.2,25.30,NW,315,4.6,4.6,51,0.00,BKN,,0.00,0.0,WeatherDisplay:10.37,2013-07-28 16:54:00,
2013-07-28 10:59:00,69.4,49.4,25.30,North,0,5.8,5.8,49,0.00,BKN,,0.00,0.0,WeatherDisplay:10.37,2013-07-28 16:59:00,
2013-07-28 11:04:00,69.6,50.2,25.30,NE,45,2.3,2.3,50,0.00,BKN,,0.00,0.0,WeatherDisplay:10.37,2013-07-28 17:04:00,
2013-07-28 11:09:00,69.8,49.2,25.30,East,90,4.6,4.6,48,0.00,BKN,,0.00,0.0,WeatherDisplay:10.37,2013-07-28 17:09:00,
2013-07-28 11:14:00,69.8,48.7,25.30,North,0,3.5,0.0,47,0.00,BKN,,0.00,204.1,WeatherDisplay:10.37,2013-07-28 17:14:00,
2013-07-28 11:19:00,70.2,48.4,25.30,West,270,3.5,3.5,46,0.00,BKN,,0.00,0.0,WeatherDisplay:10.37,2013-07-28 17:19:00,
2013-07-28 11:24:00,70.3,49.1,25.30,SW,225,2.3,0.0,47,0.00,BKN,,0.00,0.0,WeatherDisplay:10.37,2013-07-28 17:24:00,
2013-07-28 11:29:00,70.9,50.8,25.29,North,0,2.3,2.3,49,0.00,BKN,,0.00,0.0,WeatherDisplay:10.37,2013-07-28 17:29:00,
2013-07-28 11:34:00,71.6,49.1,25.29,North,0,5.8,5.8,45,0.00,BKN,,0.00,0.0,WeatherDisplay:10.37,2013-07-28 17:34:00,
2013-07-28 11:39:00,71.6,49.1,25.29,NW,315,8.1,8.1,45,0.00,BKN,,0.00,215.4,WeatherDisplay:10.37,2013-07-28 17:39:00,
2013-07-28 11:44:00,72.3,48.6,25.29,North,0,5.8,5.8,43,0.00,BKN,,0.00,217.2,WeatherDisplay:10.37,2013-07-28 17:44:00,
2013-07-28 11:49:00,72.5,48.7,25.29,North,0,5.8,5.8,43,0.00,BKN,,0.00,0.0,WeatherDisplay:10.37,2013-07-28 17:49:00,
2013-07-28 11:54:00,72.5,48.1,25.29,West,270,6.9,6.9,42,0.00,BKN,,0.00,220.5,WeatherDisplay:10.37,2013-07-28 17:54:00,
2013-07-28 11:59:00,73.2,49.4,25.29,NW,315,5.8,5.8,43,0.00,BKN,,0.00,0.0,WeatherDisplay:10.37,2013-07-28 17:59:00,
2013-07-28 12:04:00,73.4,48.3,25.28,North,0,4.6,4.6,41,0.00,BKN,,0.00,0.0,WeatherDisplay:10.37,2013-07-28 18:04:00,
2013-07-28 12:09:00,74.3,47.7,25.28,NW,315,9.2,9.2,39,0.00,BKN,,0.00,0.0,WeatherDisplay:10.37,2013-07-28 18:09:00,
2013-07-28 12:14:00,74.8,47.5,25.28,North,0,5.8,5.8,38,0.00,BKN,,0.00,226.0,WeatherDisplay:10.37,2013-07-28 18:14:00,
2013-07-28 12:19:00,75.0,47.7,25.28,North,0,4.6,4.6,38,0.00,BKN,,0.00,0.0,WeatherDisplay:10.37,2013-07-28 18:19:00,
2013-07-28 12:24:00,75.6,48.2,25.28,North,0,5.8,5.8,38,0.00,BKN,,0.00,228.3,WeatherDisplay:10.37,2013-07-28 18:24:00,
2013-07-28 12:29:00,75.0,47.0,25.28,NW,315,8.1,8.1,37,0.00,BKN,,0.00,229.1,WeatherDisplay:10.37,2013-07-28 18:29:00,
2013-07-28 12:34:00,74.5,47.9,25.28,WNW,292,5.8,5.8,39,0.00,BKN,,0.00,229.9,WeatherDisplay:10.37,2013-07-28 18:34:00,
2013-07-28 12:39:00,74.5,47.9,25.28,NE,45,4.6,4.6,39,0.00,BKN,,0.00,230.5,WeatherDisplay:10.37,2013-07-28 18:39:00,
2013-07-28 12:44:00,74.5,47.2,25.28,SW,225,15.0,15.0,38,0.00,BKN,,0.00,0.0,WeatherDisplay:10.37,2013-07-28 18:44:00,
2013-07-28 12:49:00,74.1,47.6,25.28,NE,45,5.8,5.8,39,0.00,BKN,,0.00,231.5,WeatherDisplay:10.37,2013-07-28 18:49:00,
2013-07-28 12:54:00,73.8,47.9,25.27,NW,315,4.6,4.6,40,0.00,BKN,,0.00,231.8,WeatherDisplay:10.37,2013-07-28 18:54:00,
2013-07-28 12:59:00,74.5,48.6,25.28,NE,45,5.8,5.8,40,0.00,BKN,,0.00,0.0,WeatherDisplay:10.37,2013-07-28 18:59:00,
2013-07-28 13:04:00,74.7,48.1,25.28,North,0,5.8,5.8,39,0.00,BKN,,0.00,232.0,WeatherDisplay:10.37,2013-07-28 19:04:00,
2013-07-28 13:09:00,76.3,47.4,25.27,NW,315,8.1,8.1,36,0.00,BKN,,0.00,232.0,WeatherDisplay:10.37,2013-07-28 19:09:00,
2013-07-28 13:14:00,76.5,47.5,25.27,NNW,338,8.1,8.1,36,0.00,BKN,,0.00,0.0,WeatherDisplay:10.37,2013-07-28 19:14:00,
2013-07-28 13:19:00,76.6,46.9,25.27,North,0,6.9,6.9,35,0.00,BKN,,0.00,231.5,WeatherDisplay:10.37,2013-07-28 19:19:00,
2013-07-28 13:24:00,76.8,47.1,25.27,ENE,68,5.8,5.8,35,0.00,BKN,,0.00,231.1,WeatherDisplay:10.37,2013-07-28 19:24:00,
2013-07-28 13:29:00,77.5,47.7,25.27,NW,315,8.1,8.1,35,0.00,BKN,,0.00,230.5,WeatherDisplay:10.37,2013-07-28 19:29:00,
2013-07-28 13:34:00,78.1,45.8,25.26,NW,315,9.2,9.2,32,0.00,BKN,,0.00,229.9,WeatherDisplay:10.37,2013-07-28 19:34:00,
2013-07-28 13:39:00,78.4,46.1,25.26,NE,45,8.1,8.1,32,0.00,BKN,,0.00,229.1,WeatherDisplay:10.37,2013-07-28 19:39:00,
2013-07-28 13:44:00,77.5,45.3,25.25,West,270,5.8,5.8,32,0.00,BKN,,0.00,228.3,WeatherDisplay:10.37,2013-07-28 19:44:00,
2013-07-28 13:49:00,77.4,45.2,25.27,North,0,3.5,3.5,32,0.00,BKN,,0.00,227.3,WeatherDisplay:10.37,2013-07-28 19:49:00,
2013-07-28 13:54:00,77.4,44.4,25.26,West,270,8.1,8.1,31,0.00,BKN,,0.00,0.0,WeatherDisplay:10.37,2013-07-28 19:54:00,
2013-07-28 13:59:00,76.6,43.7,25.25,West,270,8.1,8.1,31,0.00,BKN,,0.00,224.8,WeatherDisplay:10.37,2013-07-28 19:59:00,
2013-07-28 14:04:00,76.6,43.7,25.26,West,270,4.6,4.6,31,0.00,BKN,,0.00,223.6,WeatherDisplay:10.37,2013-07-28 20:04:00,
2013-07-28 14:09:00,76.8,44.7,25.26,North,0,10.4,0.0,32,0.00,BKN,,0.00,222.1,WeatherDisplay:10.37,2013-07-28 20:09:00,
2013-07-28 14:14:00,77.7,44.7,25.25,NW,315,8.1,8.1,31,0.00,BKN,,0.00,220.5,WeatherDisplay:10.37,2013-07-28 20:14:00,
2013-07-28 14:19:00,78.1,43.2,25.26,North,0,10.4,10.4,29,0.00,BKN,,0.00,218.9,WeatherDisplay:10.37,2013-07-28 20:19:00,
2013-07-28 14:24:00,77.2,42.5,25.25,NE,45,3.5,3.5,29,0.00,BKN,,0.00,217.2,WeatherDisplay:10.37,2013-07-28 20:24:00,
2013-07-28 14:29:00,77.7,44.7,25.25,SE,135,5.8,5.8,31,0.00,BKN,,0.00,215.4,WeatherDisplay:10.37,2013-07-28 20:29:00,
2013-07-28 14:34:00,78.6,44.6,25.25,SW,225,5.8,5.8,30,0.00,BKN,,0.00,213.3,WeatherDisplay:10.37,2013-07-28 20:34:00,
2013-07-28 14:39:00,78.8,44.7,25.24,North,0,4.6,4.6,30,0.00,BKN,,0.00,211.3,WeatherDisplay:10.37,2013-07-28 20:39:00,
2013-07-28 14:44:00,79.5,45.4,25.24,South,180,2.3,2.3,30,0.00,BKN,,0.00,209.3,WeatherDisplay:10.37,2013-07-28 20:44:00,
2013-07-28 14:49:00,81.0,42.8,25.24,East,90,5.8,5.8,26,0.00,BKN,,0.00,207.0,WeatherDisplay:10.37,2013-07-28 20:49:00,
2013-07-28 14:54:00,80.6,42.5,25.25,East,90,4.6,4.6,26,0.00,BKN,,0.00,204.5,WeatherDisplay:10.37,2013-07-28 20:54:00,
2013-07-28 14:59:00,79.9,42.9,25.24,WSW,248,3.5,3.5,27,0.00,BKN,,0.00,202.1,WeatherDisplay:10.37,2013-07-28 20:59:00,
2013-07-28 15:04:00,79.9,42.9,25.25,South,180,2.3,2.3,27,0.00,BKN,,0.00,0.0,WeatherDisplay:10.37,2013-07-28 21:04:00,
2013-07-28 15:09:00,79.2,42.3,25.25,NE,45,6.9,6.9,27,0.00,BKN,,0.00,197.0,WeatherDisplay:10.37,2013-07-28 21:09:00,
2013-07-28 15:14:00,78.1,42.3,25.25,NE,45,3.5,3.5,28,0.00,BKN,,0.00,194.3,WeatherDisplay:10.37,2013-07-28 21:14:00,
2013-07-28 15:19:00,76.8,42.1,25.25,NW,315,8.1,8.1,29,0.00,BKN,,0.00,191.7,WeatherDisplay:10.37,2013-07-28 21:19:00,
2013-07-28 15:24:00,75.9,42.2,25.26,North,0,4.6,0.0,30,0.00,BKN,,0.00,188.8,WeatherDisplay:10.37,2013-07-28 21:24:00,
2013-07-28 15:29:00,75.6,42.8,25.26,North,0,4.6,4.6,31,0.00,BKN,,0.00,185.9,WeatherDisplay:10.37,2013-07-28 21:29:00,
2013-07-28 15:34:00,75.4,43.5,25.26,North,0,6.9,6.9,32,0.00,BKN,,0.00,183.1,WeatherDisplay:10.37,2013-07-28 21:34:00,
2013-07-28 15:39:00,75.4,42.6,25.25,North,0,5.8,5.8,31,0.00,BKN,,0.00,180.0,WeatherDisplay:10.37,2013-07-28 21:39:00,
2013-07-28 15:44:00,76.8,42.1,25.24,North,0,15.0,15.0,29,0.00,BKN,,0.00,176.9,WeatherDisplay:10.37,2013-07-28 21:44:00,
2013-07-28 15:49:00,77.4,42.6,25.24,NE,45,3.5,3.5,29,0.00,BKN,,0.00,173.7,WeatherDisplay:10.37,2013-07-28 21:49:00,
2013-07-28 15:54:00,77.5,42.8,25.24,West,270,2.3,0.0,29,0.00,BKN,,0.00,170.6,WeatherDisplay:10.37,2013-07-28 21:54:00,
2013-07-28 15:59:00,77.5,42.8,25.24,SW,225,1.2,1.2,29,0.00,BKN,,0.00,167.3,WeatherDisplay:10.37,2013-07-28 21:59:00,
2013-07-28 16:04:00,77.5,42.8,25.24,SW,225,2.3,2.3,29,0.00,BKN,,0.00,164.0,WeatherDisplay:10.37,2013-07-28 22:04:00,
2013-07-28 16:09:00,79.5,42.6,25.24,NW,315,4.6,4.6,27,0.00,BKN,,0.00,160.6,WeatherDisplay:10.37,2013-07-28 22:09:00,
2013-07-28 16:14:00,79.2,42.3,25.25,North,0,9.2,9.2,27,0.00,BKN,,0.00,0.0,WeatherDisplay:10.37,2013-07-28 22:14:00,
2013-07-28 16:19:00,79.0,42.1,25.25,NW,315,8.1,8.1,27,0.00,BKN,,0.00,153.8,WeatherDisplay:10.37,2013-07-28 22:19:00,
2013-07-28 16:24:00,79.0,41.2,25.25,NE,45,3.5,3.5,26,0.00,BKN,,0.00,150.3,WeatherDisplay:10.37,2013-07-28 22:24:00,
2013-07-28 16:29:00,79.9,41.9,25.24,NE,45,4.6,4.6,26,0.00,BKN,,0.00,146.9,WeatherDisplay:10.37,2013-07-28 22:29:00,
2013-07-28 16:34:00,80.8,42.7,25.24,East,90,5.8,5.8,26,0.00,BKN,,0.00,143.4,WeatherDisplay:10.37,2013-07-28 22:34:00,
2013-07-28 16:39:00,81.3,42.1,25.24,West,270,3.5,3.5,25,0.00,BKN,,0.00,139.9,WeatherDisplay:10.37,2013-07-28 22:39:00,
2013-07-28 16:44:00,81.9,42.6,25.24,NE,45,3.5,3.5,25,0.00,BKN,,0.00,136.2,WeatherDisplay:10.37,2013-07-28 22:44:00,
2013-07-28 16:49:00,81.5,40.1,25.24,North,0,8.1,8.1,23,0.00,BKN,,0.00,0.0,WeatherDisplay:10.37,2013-07-28 22:49:00,
2013-07-28 16:54:00,80.6,40.5,25.24,North,0,4.6,4.6,24,0.00,BKN,,0.00,129.1,WeatherDisplay:10.37,2013-07-28 22:54:00,
2013-07-28 17:00:00,79.2,40.3,25.24,NW,315,8.3,8.3,25,0.00,BKN,,0.00,0.0,WeatherDisplay:10.37,2013-07-28 23:00:00,
2013-07-28 17:05:00,79.2,40.3,25.24,NW,315,8.1,8.1,25,0.00,BKN,,0.00,0.0,WeatherDisplay:10.37,2013-07-28 23:05:00,
2013-07-28 17:10:00,77.7,41.1,25.24,SE,135,6.9,6.9,27,0.00,BKN,,0.00,118.2,WeatherDisplay:10.37,2013-07-28 23:10:00,
2013-07-28 17:15:00,77.7,41.1,25.24,NW,315,5.8,5.8,27,0.00,BKN,,0.00,114.8,WeatherDisplay:10.37,2013-07-28 23:15:00,
2013-07-28 17:20:00,77.5,41.8,25.25,North,0,8.1,8.1,28,0.00,BKN,,0.00,0.0,WeatherDisplay:10.37,2013-07-28 23:20:00,
2013-07-28 17:25:00,77.4,42.6,25.25,NW,315,5.8,5.8,29,0.00,BKN,,0.00,0.0,WeatherDisplay:10.37,2013-07-28 23:25:00,
2013-07-28 17:30:00,77.0,42.3,25.25,NW,315,8.1,8.1,29,0.00,BKN,,0.00,103.9,WeatherDisplay:10.37,2013-07-28 23:30:00,
2013-07-28 17:35:00,76.6,42.0,25.25,NE,45,3.5,3.5,29,0.00,BKN,,0.00,0.0,WeatherDisplay:10.37,2013-07-28 23:35:00,
2013-07-28 17:40:00,76.5,41.8,25.25,North,0,5.8,5.8,29,0.00,BKN,,0.00,0.0,WeatherDisplay:10.37,2013-07-28 23:40:00,
2013-07-28 17:45:00,76.5,41.8,25.25,NE,45,5.8,5.8,29,0.00,BKN,,0.00,93.3,WeatherDisplay:10.37,2013-07-28 23:45:00,
2013-07-28 17:50:00,76.5,41.8,25.25,North,0,8.1,8.1,29,0.00,BKN,,0.00,89.6,WeatherDisplay:10.37,2013-07-28 23:50:00,
2013-07-28 17:55:00,76.8,42.1,25.25,East,90,3.5,3.5,29,0.00,BKN,,0.00,0.0,WeatherDisplay:10.37,2013-07-28 23:55:00,
2013-07-28 18:00:00,77.5,42.8,25.24,SE,135,5.8,5.8,29,0.00,BKN,,0.00,0.0,WeatherDisplay:10.37,2013-07-29 00:00:00,
2013-07-28 18:05:00,77.5,42.8,25.25,SE,135,3.5,3.5,29,0.00,BKN,,0.00,0.0,WeatherDisplay:10.37,2013-07-29 00:05:00,
2013-07-28 18:10:00,77.5,41.8,25.24,North,0,4.6,4.6,28,0.00,BKN,,0.00,75.9,WeatherDisplay:10.37,2013-07-29 00:10:00,
2013-07-28 18:15:00,77.7,42.0,25.24,East,90,3.5,3.5,28,0.00,BKN,,0.00,0.0,WeatherDisplay:10.37,2013-07-29 00:15:00,
2013-07-28 18:20:00,77.7,42.0,25.25,East,90,5.8,5.8,28,0.00,BKN,,0.00,0.0,WeatherDisplay:10.37,2013-07-29 00:20:00,
2013-07-28 18:25:00,78.4,42.6,25.24,West,270,8.1,8.1,28,0.00,BKN,,0.00,65.9,WeatherDisplay:10.37,2013-07-29 00:25:00,
2013-07-28 18:30:00,78.6,41.8,25.25,North,0,8.1,8.1,27,0.00,BKN,,0.00,0.0,WeatherDisplay:10.37,2013-07-29 00:30:00,
2013-07-28 18:35:00,78.8,42.0,25.25,NNW,338,9.2,9.2,27,0.00,BKN,,0.00,0.0,WeatherDisplay:10.37,2013-07-29 00:35:00,
2013-07-28 18:40:00,78.6,42.8,25.25,NE,45,3.5,3.5,28,0.00,BKN,,0.00,0.0,WeatherDisplay:10.37,2013-07-29 00:40:00,
2013-07-28 18:45:00,78.3,42.5,25.25,NE,45,8.1,8.1,28,0.00,BKN,,0.00,53.0,WeatherDisplay:10.37,2013-07-29 00:45:00,
2013-07-28 18:50:00,78.1,43.2,25.25,NE,45,4.6,4.6,29,0.00,BKN,,0.00,0.0,WeatherDisplay:10.37,2013-07-29 00:50:00,
2013-07-28 18:55:00,78.1,43.2,25.25,NE,45,2.3,2.3,29,0.00,BKN,,0.00,0.0,WeatherDisplay:10.37,2013-07-29 00:55:00,
2013-07-28 19:00:00,78.1,43.2,25.25,West,270,6.9,6.9,29,0.00,BKN,,0.00,44.0,WeatherDisplay:10.37,2013-07-29 01:00:00,
2013-07-28 19:05:00,78.1,43.2,25.25,West,270,8.1,8.1,29,0.00,BKN,,0.00,40.9,WeatherDisplay:10.37,2013-07-29 01:05:00,
2013-07-28 19:10:00,78.3,43.4,25.25,NW,315,4.6,6.0,29,0.00,BKN,,0.00,0.0,WeatherDisplay:10.37,2013-07-29 01:10:00,
2013-07-28 19:15:00,78.6,43.7,25.24,North,0,4.6,0.0,29,0.00,BKN,,0.00,0.0,WeatherDisplay:10.37,2013-07-29 01:15:00,
2013-07-28 19:20:00,79.2,43.2,25.25,NW,315,8.1,8.1,28,0.00,BKN,,0.00,31.9,WeatherDisplay:10.37,2013-07-29 01:20:00,
2013-07-28 19:25:00,78.8,42.9,25.25,NW,315,3.5,0.0,28,0.00,BKN,,0.00,29.3,WeatherDisplay:10.37,2013-07-29 01:25:00,
2013-07-28 19:30:00,78.1,43.2,25.25,West,270,11.5,11.5,29,0.00,BKN,,0.00,0.0,WeatherDisplay:10.37,2013-07-29 01:30:00,
2013-07-28 19:35:00,77.2,42.5,25.25,NW,315,6.9,6.9,29,0.00,BKN,,0.00,0.0,WeatherDisplay:10.37,2013-07-29 01:35:00,
2013-07-28 19:40:00,76.5,42.7,25.25,NW,315,6.9,6.9,30,0.00,BKN,,0.00,21.7,WeatherDisplay:10.37,2013-07-29 01:40:00,
2013-07-28 19:46:00,75.9,43.1,25.25,South,180,6.9,6.9,31,0.00,BKN,,0.00,0.0,WeatherDisplay:10.37,2013-07-29 01:46:00,
2013-07-28 19:51:00,75.7,42.9,25.26,SW,225,6.9,6.9,31,0.00,BKN,,0.00,0.0,WeatherDisplay:10.37,2013-07-29 01:51:00,
2013-07-28 19:57:00,75.6,42.8,25.25,North,0,3.5,3.5,31,0.00,BKN,,0.00,14.1,WeatherDisplay:10.37,2013-07-29 01:57:00,
2013-07-28 20:02:00,75.4,42.6,25.26,South,180,1.2,1.2,31,0.00,BKN,,0.00,0.0,WeatherDisplay:10.37,2013-07-29 02:02:00,
2013-07-28 20:07:00,75.4,42.6,25.26,South,180,1.2,1.2,31,0.00,BKN,,0.00,9.6,WeatherDisplay:10.37,2013-07-29 02:07:00,
2013-07-28 20:12:00,75.2,43.3,25.26,NW,315,8.1,8.1,32,0.00,BKN,,0.00,7.6,WeatherDisplay:10.37,2013-07-29 02:12:00,
2013-07-28 20:17:00,74.8,43.8,25.25,North,0,3.5,3.5,33,0.00,BKN,,0.00,0.0,WeatherDisplay:10.37,2013-07-29 02:17:00,
2013-07-28 20:22:00,74.7,43.6,25.26,WNW,292,4.6,4.6,33,0.00,BKN,,0.00,0.0,WeatherDisplay:10.37,2013-07-29 02:22:00,
2013-07-28 20:27:00,74.7,43.6,25.26,North,0,3.5,3.5,33,0.00,BKN,,0.00,1.6,WeatherDisplay:10.37,2013-07-29 02:27:00,
2013-07-28 20:32:00,74.5,43.5,25.26,NW,315,4.6,4.6,33,0.00,CLR,,0.00,0.0,WeatherDisplay:10.37,2013-07-29 02:32:00,
2013-07-28 20:37:00,74.5,43.5,25.27,North,0,4.6,0.0,33,0.00,CLR,,0.00,0.0,WeatherDisplay:10.37,2013-07-29 02:37:00,
2013-07-28 20:42:00,74.3,42.5,25.26,SW,225,4.6,4.6,32,0.00,CLR,,0.00,0.0,WeatherDisplay:10.37,2013-07-29 02:42:00,
2013-07-28 20:47:00,74.1,42.4,25.26,NW,315,1.2,1.2,32,0.00,CLR,,0.00,0.0,WeatherDisplay:10.37,2013-07-29 02:47:00,
2013-07-28 20:53:00,73.8,42.0,25.26,NE,45,3.5,3.5,32,0.00,CLR,,0.00,0.0,WeatherDisplay:10.37,2013-07-29 02:53:00,
2013-07-28 20:58:00,73.2,42.4,25.26,NW,315,3.5,3.5,33,0.00,CLR,,0.00,0.0,WeatherDisplay:10.37,2013-07-29 02:58:00,
2013-07-28 21:03:00,73.0,41.4,25.26,East,90,4.6,4.6,32,0.00,CLR,,0.00,0.0,WeatherDisplay:10.37,2013-07-29 03:03:00,
2013-07-28 21:08:00,72.7,41.1,25.27,East,90,4.6,4.6,32,0.00,CLR,,0.00,0.0,WeatherDisplay:10.37,2013-07-29 03:08:00,
2013-07-28 21:14:00,72.3,41.6,25.27,North,0,3.5,3.5,33,0.00,CLR,,0.00,0.0,WeatherDisplay:10.37,2013-07-29 03:14:00,
2013-07-28 21:19:00,72.0,41.3,25.27,North,0,0.0,0.0,33,0.00,CLR,,0.00,0.0,WeatherDisplay:10.37,2013-07-29 03:19:00,
2013-07-28 21:24:00,71.6,41.7,25.27,North,0,4.6,4.6,34,0.00,CLR,,0.00,0.0,WeatherDisplay:10.37,2013-07-29 03:24:00,
2013-07-28 21:29:00,71.2,41.4,25.27,NNE,22,3.5,3.5,34,0.00,CLR,,0.00,0.0,WeatherDisplay:10.37,2013-07-29 03:29:00,
2013-07-28 21:35:00,71.2,42.2,25.27,West,270,3.5,3.5,35,0.00,CLR,,0.00,0.0,WeatherDisplay:10.37,2013-07-29 03:35:00,
2013-07-28 21:40:00,70.5,42.3,25.27,SE,135,1.2,0.0,36,0.00,CLR,,0.00,0.0,WeatherDisplay:10.37,2013-07-29 03:40:00,
2013-07-28 21:45:00,69.8,42.3,25.27,South,180,0.0,0.0,37,0.00,CLR,,0.00,0.0,WeatherDisplay:10.37,2013-07-29 03:45:00,
2013-07-28 21:51:00,69.1,41.7,25.27,South,180,2.3,2.3,37,0.00,CLR,,0.00,0.0,WeatherDisplay:10.37,2013-07-29 03:51:00,
2013-07-28 21:56:00,68.4,43.1,25.27,West,270,0.0,0.0,40,0.00,CLR,,0.00,0.0,WeatherDisplay:10.37,2013-07-29 03:56:00,
2013-07-28 22:01:00,67.8,43.2,25.28,West,270,0.0,0.0,41,0.00,CLR,,0.00,0.0,WeatherDisplay:10.37,2013-07-29 04:01:00,
2013-07-28 22:02:00,67.8,43.2,25.28,West,270,0.0,0.0,41,0.00,CLR,,0.00,0.0,WeatherDisplay:10.37,2013-07-29 04:02:00,
2013-07-28 22:03:00,67.8,43.2,25.27,West,270,0.0,0.0,41,0.00,CLR,,0.00,0.0,WeatherDisplay:10.37,2013-07-29 04:03:00,
2013-07-28 22:08:00,66.4,42.6,25.28,SW,225,0.0,0.7,42,0.00,CLR,,0.00,0.0,WeatherDisplay:10.37,2013-07-29 04:08:00,
2013-07-28 22:13:00,65.7,41.9,25.28,SW,225,1.2,1.2,42,0.00,CLR,,0.00,0.0,WeatherDisplay:10.37,2013-07-29 04:13:00,
2013-07-28 22:18:00,65.3,42.2,25.28,SW,225,0.0,0.0,43,0.00,CLR,,0.00,0.0,WeatherDisplay:10.37,2013-07-29 04:18:00,
2013-07-28 22:23:00,64.8,42.3,25.28,SW,225,0.0,0.0,44,0.00,CLR,,0.00,0.0,WeatherDisplay:10.37,2013-07-29 04:23:00,
2013-07-28 22:28:00,64.2,41.8,25.28,SW,225,1.2,0.0,44,0.00,CLR,,0.00,0.0,WeatherDisplay:10.37,2013-07-29 04:28:00,
2013-07-28 22:33:00,63.7,42.5,25.29,NW,315,0.0,0.0,46,0.00,CLR,,0.00,0.0,WeatherDisplay:10.37,2013-07-29 04:33:00,
2013-07-28 22:38:00,63.0,41.8,25.29,NW,315,0.0,0.0,46,0.00,CLR,,0.00,0.0,WeatherDisplay:10.37,2013-07-29 04:38:00,
2013-07-28 22:43:00,62.4,41.9,25.29,South,180,0.0,0.0,47,0.00,CLR,,0.00,0.0,WeatherDisplay:10.37,2013-07-29 04:43:00,
2013-07-28 22:48:00,62.2,42.3,25.28,West,270,0.0,0.0,48,0.00,CLR,,0.00,0.0,WeatherDisplay:10.37,2013-07-29 04:48:00,
2013-07-28 22:53:00,61.9,41.4,25.29,West,270,0.0,0.0,47,0.00,CLR,,0.00,0.0,WeatherDisplay:10.37,2013-07-29 04:53:00,
2013-07-28 22:58:00,61.5,41.6,25.29,South,180,0.0,0.0,48,0.00,CLR,,0.00,0.0,WeatherDisplay:10.37,2013-07-29 04:58:00,
2013-07-28 23:03:00,61.5,41.6,25.30,South,180,0.0,0.0,48,0.00,CLR,,0.00,0.0,WeatherDisplay:10.37,2013-07-29 05:03:00,
2013-07-28 23:08:00,61.0,41.7,25.30,South,180,1.2,0.0,49,0.00,CLR,,0.00,0.0,WeatherDisplay:10.37,2013-07-29 05:08:00,
2013-07-28 23:13:00,61.0,42.2,25.30,West,270,1.2,0.0,50,0.00,CLR,,0.00,0.0,WeatherDisplay:10.37,2013-07-29 05:13:00,
2013-07-28 23:18:00,60.6,42.4,25.29,South,180,2.3,0.0,51,0.00,CLR,,0.00,0.0,WeatherDisplay:10.37,2013-07-29 05:18:00,
2013-07-28 23:23:00,60.1,42.4,25.29,South,180,1.2,0.0,52,0.00,CLR,,0.00,0.0,WeatherDisplay:10.37,2013-07-29 05:23:00,
2013-07-28 23:28:00,59.7,42.6,25.29,South,180,1.2,1.2,53,0.00,CLR,,0.00,0.0,WeatherDisplay:10.37,2013-07-29 05:28:00,
2013-07-28 23:33:00,59.4,42.2,25.29,SE,135,1.2,0.0,53,0.00,CLR,,0.00,0.0,WeatherDisplay:10.37,2013-07-29 05:33:00,
2013-07-28 23:38:00,59.2,42.0,25.29,South,180,2.3,2.3,53,0.00,CLR,,0.00,0.0,WeatherDisplay:10.37,2013-07-29 05:38:00,
2013-07-28 23:43:00,59.0,42.4,25.30,SW,225,0.0,0.0,54,0.00,CLR,,0.00,0.0,WeatherDisplay:10.37,2013-07-29 05:43:00,
2013-07-28 23:48:00,58.6,42.0,25.29,South,180,2.3,2.3,54,0.00,CLR,,0.00,0.0,WeatherDisplay:10.37,2013-07-29 05:48:00,
2013-07-28 23:53:00,58.3,42.2,25.28,SW,225,1.2,1.2,55,0.00,CLR,,0.00,0.0,WeatherDisplay:10.37,2013-07-29 05:53:00,
2013-07-28 23:58:00,58.1,42.0,25.27,South,180,2.3,2.3,55,0.00,CLR,,0.00,0.0,WeatherDisplay:10.37,2013-07-29 05:58:00,